{"data":{"norad_id":81323,"intl_designator":"","name":"UNKNOWN","alt_names":[],"object_type":"UNKNOWN","status":"UNKNOWN","operator":null,"country":null,"launch_date":null,"launch_site_code":null,"launch_vehicle":null,"mission":null,"orbit_class":"UNKNOWN","rcs_meters":null,"size_class":null,"mass_kg":null,"dimensions":null,"purposes":[],"wikipedia_slug":null,"has_3d_model":false,"image_url":null,"decayed_at":null,"tle_current":{"epoch":"2026-05-22T03:52:07.552992Z","epoch_age_seconds":324332,"freshness":"STALE","line1":"1 81323U          26142.16119853  .00010109  00000+0  12436-2 0  9994","line2":"2 81323  65.7497 297.8730 0328497 229.4412 127.7668 14.51831251136312","mean_motion":14.51831251,"eccentricity":0.0328497,"inclination_deg":65.7497,"raan_deg":297.873,"arg_perigee_deg":229.4412,"mean_anomaly_deg":127.7668,"bstar":0.0012436,"rev_number":13631,"period_min":99.185080842429,"perigee_km":486.51277795972,"apogee_km":952.83468430881,"semimajor_km":7097.8107311343,"source":"CELESTRAK","updated_at":"2026-05-25T13:38:09.449093Z"}}}